Antalya, Turkey

10:43 AM EEST on September 25, 2016 (GMT +0300)
Antalya

Weather History for LTAI - June, 2013

Change the Weather History Date:

Thursday, June 13, 2013

  Actual Average Record
Temperature  
Mean Temperature 72 °F -  
Max Temperature 80 °F 87 °F 102 °F (2000)
Min Temperature 63 °F 67 °F 62 °F (1997)
Cooling Degree Days 6    
Growing Degree Days 22 (Base 50)    
Moisture  
Dew Point 63 °F    
Average Humidity 73    
Maximum Humidity 88    
Minimum Humidity 46    
Precipitation  
Precipitation 0.00 in - - ()
Sea Level Pressure  
Sea Level Pressure 29.73 in    
Wind  
Wind Speed 5 mph ()    
Max Wind Speed 12 mph    
Max Gust Speed -    
Visibility 6.2 miles    
Events      
Averages and records for this station are not official NWS values.
T = Trace of Precipitation, MM = Missing Value Source: Averaged Metar Reports

Daily Weather History Graph

Daily Weather History Graph

Search for Another Location

Airport or City:

Trip Planner

Search our weather history database for the weather conditions in past years. The results will help you decide how hot, cold, wet, or windy it might be!

Date:

Astronomy

Jun. 13, 2013 Rise Set
Actual Time 5:36 AM EEST 8:17 PM EEST
Civil Twilight 5:06 AM EEST 8:47 PM EEST
Nautical Twilight 4:27 AM EEST 9:26 PM EEST
Astronomical Twilight 3:45 AM EEST 10:08 PM EEST
Moon 9:49 AM EEST (6/13) 11:19 PM EEST (6/13)
Length of Visible Light 15h 41m
Length of Day
14h 40m
Waxing Crescent, 19% of the Moon is Illuminated
Jun 13
Waxing Crescent
Jun 16
First Quarter
Jun 23
Full
Jun 30
Last Quarter
Jul 8
New

Hourly Weather History & Observations

Time (EEST) Temp. Dew Point Humidity Pressure Visibility Wind Dir Wind Speed Gust Speed Precip Events Conditions
12:20 AM 68.0 °F 64.4 °F 88% 29.71 in - Variable 2.3 mph - N/A   Clear
12:50 AM 68.0 °F 64.4 °F 88% 29.71 in - NNW 4.6 mph - N/A   Clear
1:20 AM 66.2 °F 62.6 °F 88% 29.71 in - North 3.5 mph - N/A   Clear
1:50 AM 66.2 °F 62.6 °F 88% 29.68 in - North 4.6 mph - N/A   Clear
2:20 AM 66.2 °F 62.6 °F 88% 29.68 in - North 5.8 mph - N/A   Clear
2:50 AM 66.2 °F 62.6 °F 88% 29.68 in - NW 4.6 mph - N/A   Clear
3:00 AM 65 °F 62 °F 86% 29.68 in 6 mi NW 4.6 mph - -  
3:50 AM 64.4 °F 60.8 °F 88% 29.68 in - NW 2.3 mph - N/A   Clear
4:20 AM 64.4 °F 60.8 °F 88% 29.68 in - Variable 2.3 mph - N/A   Clear
4:50 AM 64.4 °F 60.8 °F 88% 29.68 in - North 4.6 mph - N/A   Clear
5:20 AM 64.4 °F 60.8 °F 88% 29.71 in - North 4.6 mph - N/A   Clear
5:50 AM 64.4 °F 60.8 °F 88% 29.71 in - North 5.8 mph - N/A   Clear
6:20 AM 64.4 °F 60.8 °F 88% 29.71 in - NNW 4.6 mph - N/A   Clear
6:50 AM 66.2 °F 60.8 °F 83% 29.71 in 6.2 mi NNW 4.6 mph - N/A   Partly Cloudy
7:20 AM 69.8 °F 62.6 °F 78% 29.71 in 6.2 mi NW 4.6 mph - N/A   Partly Cloudy
7:50 AM 71.6 °F 62.6 °F 73% 29.71 in 6.2 mi NNW 4.6 mph - N/A   Scattered Clouds
8:20 AM 71.6 °F 64.4 °F 78% 29.71 in 6.2 mi North 5.8 mph - N/A   Scattered Clouds
8:50 AM 73.4 °F 64.4 °F 73% 29.71 in 6.2 mi Variable 2.3 mph - N/A   Scattered Clouds
9:00 AM 73 °F 64 °F 66% 29.71 in 6 mi East 2.3 mph - -   Partly Cloudy
9:20 AM 75.2 °F 64.4 °F 69% 29.71 in 6.2 mi East 3.5 mph - N/A   Mostly Cloudy
9:50 AM 73.4 °F 62.6 °F 69% 29.74 in 6.2 mi SSE 4.6 mph - N/A   Mostly Cloudy
10:20 AM 75.2 °F 62.6 °F 65% 29.74 in 6.2 mi SSE 6.9 mph - N/A   Mostly Cloudy
10:50 AM 77.0 °F 62.6 °F 61% 29.74 in 6.2 mi South 6.9 mph - N/A   Mostly Cloudy
11:20 AM 78.8 °F 62.6 °F 57% 29.74 in 6.2 mi SSE 6.9 mph - N/A   Mostly Cloudy
11:50 AM 78.8 °F 60.8 °F 54% 29.74 in 6.2 mi SSE 6.9 mph - N/A   Scattered Clouds
12:20 PM 78.8 °F 60.8 °F 54% 29.74 in 6.2 mi South 10.4 mph - N/A   Scattered Clouds
12:50 PM 78.8 °F 60.8 °F 54% 29.74 in 6.2 mi South 9.2 mph - N/A   Scattered Clouds
1:20 PM 78.8 °F 62.6 °F 57% 29.74 in 6.2 mi South 10.4 mph - N/A   Scattered Clouds
1:50 PM 77.0 °F 64.4 °F 65% 29.74 in 6.2 mi South 11.5 mph - N/A   Scattered Clouds
2:20 PM 77.0 °F 64.4 °F 65% 29.74 in 6.2 mi South 11.5 mph - N/A   Mostly Cloudy
2:50 PM 77.0 °F 62.6 °F 61% 29.74 in 6.2 mi SSE 10.4 mph - N/A   Mostly Cloudy
3:00 PM 78 °F 61 °F 46% 29.74 in 6 mi SSE 10.4 mph - -   Mostly Cloudy
3:20 PM 78.8 °F 62.6 °F 57% 29.74 in 6.2 mi SSE 11.5 mph - N/A   Mostly Cloudy
3:50 PM 78.8 °F 62.6 °F 57% 29.74 in 6.2 mi SSE 10.4 mph - N/A   Mostly Cloudy
4:20 PM 78.8 °F 64.4 °F 61% 29.74 in 6.2 mi SSE 9.2 mph - N/A   Mostly Cloudy
4:50 PM 77.0 °F 64.4 °F 65% 29.74 in 6.2 mi SSE 9.2 mph - N/A   Mostly Cloudy
5:20 PM 78.8 °F 64.4 °F 61% 29.74 in 6.2 mi SSE 6.9 mph - N/A   Mostly Cloudy
5:50 PM 77.0 °F 64.4 °F 65% 29.74 in 6.2 mi SSE 8.1 mph - N/A   Mostly Cloudy
6:20 PM 77.0 °F 64.4 °F 65% 29.74 in 6.2 mi SSE 6.9 mph - N/A   Mostly Cloudy
6:50 PM 75.2 °F 64.4 °F 69% 29.74 in 6.2 mi SE 4.6 mph - N/A   Mostly Cloudy
7:20 PM 75.2 °F 64.4 °F 69% 29.74 in 6.2 mi SE 4.6 mph - N/A   Mostly Cloudy
7:50 PM 73.4 °F 64.4 °F 73% 29.77 in 6.2 mi East 4.6 mph - N/A   Mostly Cloudy
8:20 PM 73.4 °F 64.4 °F 73% 29.77 in 6.2 mi SE 4.6 mph - N/A   Mostly Cloudy
8:50 PM 73.4 °F 64.4 °F 73% 29.77 in 6.2 mi Variable 2.3 mph - N/A   Mostly Cloudy
9:00 PM 72 °F 65 °F 72% 29.76 in 6 mi ESE 2.3 mph - -   Mostly Cloudy
9:20 PM 73.4 °F 64.4 °F 73% 29.77 in 6.2 mi East 5.8 mph - N/A   Scattered Clouds
9:50 PM 71.6 °F 64.4 °F 78% 29.80 in 6.2 mi ENE 5.8 mph - N/A   Scattered Clouds
10:20 PM 71.6 °F 64.4 °F 78% 29.80 in 6.2 mi ENE 5.8 mph - N/A   Scattered Clouds
10:37 PM 71.6 °F 64.4 °F 78% 29.80 in 6.2 mi ENE 4.6 mph - N/A   Scattered Clouds
10:50 PM 71.6 °F 64.4 °F 78% 29.80 in 6.2 mi ENE 3.5 mph - N/A   Mostly Cloudy
11:20 PM 71.6 °F 64.4 °F 78% 29.80 in 6.2 mi NE 4.6 mph - N/A   Mostly Cloudy
11:50 PM 69.8 °F 64.4 °F 83% 29.77 in 6.2 mi NNE 5.8 mph - N/A   Mostly Cloudy